• In Uzbekistan
  • List of Countries
  • For 7 days
  • Water Temperature
  • Satellite Maps
  • Weather Map
  • Weather Widgets
  • user-avatar
    Login

    Hourly Weather Kudrino

    Today, 24 September, Monday

    Time Temperature Precipitation Wind Pressure Humidity
    00:00 +8°C° 3 mm 5 mps 740 mmHg 88%
    01:00 +8°C° 0.3 mm 5 mps 740 mmHg 88%
    02:00 +8°C° 0.3 mm 4 mps 740 mmHg 88%
    03:00 +9°C° 0 mm 3 mps 740 mmHg 89%
    04:00 +9°C° 0 mm 3 mps 740 mmHg 90%
    05:00 +8°C° 0 mm 3 mps 741 mmHg 92%
    06:00 +8°C° 0 mm 3 mps 741 mmHg 93%
    07:00 +9°C° 0 mm 3 mps 741 mmHg 89%
    08:00 +10°C° 0 mm 3 mps 742 mmHg 85%
    09:00 +12°C° 0 mm 2 mps 742 mmHg 78%
    10:00 +13°C° 0 mm 2 mps 742 mmHg 72%
    11:00 +13°C° 0 mm 3 mps 742 mmHg 65%
    12:00 +16°C° 0 mm 3 mps 742 mmHg 58%
    13:00 +16°C° 0 mm 3 mps 742 mmHg 55%
    14:00 +16°C° 0 mm 3 mps 742 mmHg 52%
    15:00 +17°C° 0 mm 3 mps 741 mmHg 49%
    16:00 +16°C° 0 mm 3 mps 741 mmHg 53%
    17:00 +14°C° 0 mm 3 mps 740 mmHg 57%
    18:00 +13°C° 0 mm 3 mps 740 mmHg 61%
    19:00 +13°C° 0 mm 4 mps 740 mmHg 59%
    20:00 +13°C° 0 mm 4 mps 739 mmHg 58%
    21:00 +13°C° 0 mm 5 mps 739 mmHg 56%
    22:00 +13°C° 0.1 mm 6 mps 738 mmHg 56%
    23:00 +13°C° 0.1 mm 6 mps 738 mmHg 55%

    Tomorrow, 25 September, Tuesday

    Time Temperature Precipitation Wind Pressure Humidity
    00:00 +12°C° 0.1 mm 7 mps 737 mmHg 55%
    01:00 +12°C° 0.2 mm 7 mps 737 mmHg 56%
    02:00 +11°C° 0.2 mm 7 mps 736 mmHg 58%
    03:00 +11°C° 0.2 mm 7 mps 735 mmHg 59%
    04:00 +11°C° 0.2 mm 7 mps 735 mmHg 65%
    05:00 +10°C° 0.2 mm 7 mps 735 mmHg 72%
    06:00 +10°C° 0.2 mm 7 mps 734 mmHg 78%
    07:00 +10°C° 0.7 mm 6 mps 734 mmHg 81%
    08:00 +10°C° 0.7 mm 6 mps 735 mmHg 85%
    09:00 +9°C° 0.7 mm 5 mps 735 mmHg 88%
    10:00 +9°C° 0.5 mm 5 mps 735 mmHg 83%
    11:00 +9°C° 0.5 mm 5 mps 736 mmHg 79%
    12:00 +9°C° 0.5 mm 5 mps 736 mmHg 75%
    13:00 +10°C° 0 mm 5 mps 736 mmHg 72%
    14:00 +10°C° 0 mm 6 mps 737 mmHg 69%
    15:00 +10°C° 0 mm 6 mps 737 mmHg 67%
    16:00 +10°C° 0 mm 5 mps 738 mmHg 69%
    17:00 +9°C° 0 mm 5 mps 738 mmHg 71%
    18:00 +10°C° 0 mm 4 mps 739 mmHg 73%
    19:00 +10°C° 0 mm 4 mps 739 mmHg 75%
    20:00 +8°C° 0 mm 4 mps 740 mmHg 77%
    21:00 +7°C° 0 mm 4 mps 740 mmHg 79%
    22:00 +7°C° 0 mm 4 mps 741 mmHg 81%
    23:00 +6°C° 0 mm 4 mps 741 mmHg 83%

    Day after tomorrow, 26 September, Wednesday

    Time Temperature Precipitation Wind Pressure Humidity
    00:00 +6°C° 0 mm 4 mps 741 mmHg 85%
    01:00 +5°C° 0 mm 4 mps 742 mmHg 85%
    02:00 +5°C° 0 mm 4 mps 742 mmHg 85%
    03:00 +5°C° 0 mm 4 mps 742 mmHg 86%
    04:00 +5°C° 0 mm 4 mps 743 mmHg 86%
    05:00 +4°C° 0 mm 4 mps 743 mmHg 87%
    06:00 +4°C° 0 mm 4 mps 744 mmHg 88%
    07:00 +5°C° 0 mm 4 mps 745 mmHg 84%
    08:00 +6°C° 0 mm 5 mps 745 mmHg 80%
    09:00 +7°C° 0 mm 5 mps 746 mmHg 76%
    10:00 +7°C° 0 mm 5 mps 746 mmHg 73%
    11:00 +7°C° 0 mm 5 mps 747 mmHg 70%
    12:00 +7°C° 0 mm 5 mps 747 mmHg 68%
    13:00 +8°C° 0 mm 5 mps 747 mmHg 66%
    14:00 +8°C° 0 mm 5 mps 748 mmHg 64%
    15:00 +8°C° 0 mm 5 mps 748 mmHg 63%
    16:00 +7°C° 0 mm 4 mps 748 mmHg 64%
    17:00 +8°C° 0 mm 3 mps 748 mmHg 66%
    18:00 +7°C° 0 mm 3 mps 748 mmHg 67%
    19:00 +7°C° 0 mm 3 mps 749 mmHg 68%
    20:00 +5°C° 0 mm 3 mps 749 mmHg 70%
    21:00 +4°C° 0 mm 3 mps 749 mmHg 71%
    22:00 +4°C° 0 mm 3 mps 749 mmHg 71%
    23:00 +4°C° 0 mm 3 mps 749 mmHg 71%

    27 September, Thursday

    Time Temperature Precipitation Wind Pressure Humidity
    00:00 +3°C° 0 mm 3 mps 748 mmHg 71%
    01:00 +3°C° 0 mm 3 mps 748 mmHg 71%
    02:00 +3°C° 0 mm 4 mps 748 mmHg 71%
    03:00 +3°C° 0 mm 4 mps 747 mmHg 71%
    04:00 +2°C° 0 mm 5 mps 747 mmHg 69%
    05:00 +2°C° 0 mm 5 mps 746 mmHg 68%
    06:00 +3°C° 0 mm 6 mps 746 mmHg 66%
    07:00 +3°C° 0 mm 7 mps 745 mmHg 65%
    08:00 +4°C° 0 mm 7 mps 745 mmHg 64%
    09:00 +5°C° 0 mm 8 mps 744 mmHg 63%
    10:00 +5°C° 0.4 mm 9 mps 744 mmHg 65%
    11:00 +5°C° 0.4 mm 9 mps 743 mmHg 66%
    12:00 +5°C° 0.4 mm 10 mps 743 mmHg 68%
    13:00 +5°C° 0.8 mm 9 mps 742 mmHg 72%
    14:00 +5°C° 0.8 mm 9 mps 742 mmHg 75%
    15:00 +5°C° 0.8 mm 9 mps 741 mmHg 79%
    16:00 +5°C° 0.3 mm 8 mps 741 mmHg 80%
    17:00 +5°C° 0.3 mm 8 mps 741 mmHg 82%
    18:00 +5°C° 0.3 mm 8 mps 741 mmHg 84%
    19:00 +6°C° 0.1 mm 7 mps 740 mmHg 85%
    20:00 +6°C° 0.1 mm 7 mps 740 mmHg 86%
    21:00 +7°C° 0.1 mm 6 mps 740 mmHg 87%
    22:00 +7°C° 0.7 mm 6 mps 740 mmHg 88%
    23:00 +7°C° 0.7 mm 6 mps 740 mmHg 90%

    28 September, Friday

    Time Temperature Precipitation Wind Pressure Humidity
    00:00 +7°C° 0.7 mm 5 mps 740 mmHg 91%
    01:00 +7°C° 0.2 mm 5 mps 740 mmHg 91%
    02:00 +7°C° 0.2 mm 4 mps 740 mmHg 92%
    03:00 +7°C° 0.2 mm 4 mps 740 mmHg 92%
    04:00 +7°C° 0 mm 4 mps 740 mmHg 93%
    05:00 +8°C° 0 mm 3 mps 740 mmHg 94%
    06:00 +8°C° 0 mm 3 mps 740 mmHg 95%
    07:00 +9°C° 0.1 mm 3 mps 740 mmHg 93%
    08:00 +10°C° 0.1 mm 4 mps 740 mmHg 91%
    09:00 +10°C° 0.1 mm 4 mps 740 mmHg 89%
    10:00 +10°C° 0.1 mm 5 mps 739 mmHg 88%
    11:00 +12°C° 0.1 mm 5 mps 739 mmHg 87%
    12:00 +13°C° 0.1 mm 6 mps 739 mmHg 86%
    13:00 +12°C° 0.1 mm 7 mps 739 mmHg 82%
    14:00 +13°C° 0.1 mm 8 mps 738 mmHg 79%
    15:00 +13°C° 0.1 mm 8 mps 738 mmHg 76%
    16:00 +13°C° 0 mm 8 mps 738 mmHg 77%
    17:00 +12°C° 0 mm 8 mps 737 mmHg 79%
    18:00 +12°C° 0 mm 7 mps 737 mmHg 80%
    19:00 +12°C° 0.1 mm 7 mps 738 mmHg 82%
    20:00 +11°C° 0.1 mm 7 mps 738 mmHg 83%
    21:00 +11°C° 0.1 mm 7 mps 739 mmHg 85%
    22:00 +10°C° 0.3 mm 6 mps 739 mmHg 85%
    23:00 +10°C° 0.3 mm 5 mps 739 mmHg 85%

    29 September, Saturday

    Time Temperature Precipitation Wind Pressure Humidity
    00:00 +10°C° 0.3 mm 4 mps 740 mmHg 86%
    01:00 +9°C° 0 mm 3 mps 740 mmHg 86%
    02:00 +9°C° 0 mm 3 mps 741 mmHg 86%
    03:00 +8°C° 0 mm 2 mps 741 mmHg 86%
    04:00 +8°C° 0 mm 2 mps 742 mmHg 88%
    05:00 +7°C° 0 mm 2 mps 742 mmHg 90%
    06:00 +6°C° 0 mm 2 mps 743 mmHg 91%
    07:00 +7°C° 0 mm 2 mps 743 mmHg 85%
    08:00 +8°C° 0 mm 2 mps 744 mmHg 78%
    09:00 +8°C° 0 mm 2 mps 744 mmHg 72%
    10:00 +9°C° 0 mm 2 mps 744 mmHg 66%
    11:00 +10°C° 0 mm 2 mps 744 mmHg 59%
    12:00 +12°C° 0 mm 2 mps 744 mmHg 53%
    13:00 +13°C° 0 mm 2 mps 744 mmHg 53%
    14:00 +13°C° 0 mm 2 mps 744 mmHg 52%
    15:00 +14°C° 0 mm 2 mps 744 mmHg 51%
    16:00 +13°C° 0 mm 2 mps 744 mmHg 55%
    17:00 +12°C° 0 mm 2 mps 744 mmHg 60%
    18:00 +12°C° 0 mm 2 mps 743 mmHg 64%
    19:00 +10°C° 0.1 mm 2 mps 744 mmHg 67%
    20:00 +10°C° 0.1 mm 2 mps 744 mmHg 70%
    21:00 +9°C° 0.1 mm 2 mps 744 mmHg 74%
    22:00 +9°C° 1.3 mm 3 mps 744 mmHg 78%
    23:00 +8°C° 1.3 mm 3 mps 744 mmHg 82%
    Show more